QPF
0.00 0.00 0.00 0.00 0.00 0.00 0.00 0.00 0.00 0.00 0.00 0.00 0.00 0.00 0.00 0.00 0.00 0.00 0.00 0.00 0.00 0.00 0.00 0.00 0.00 0.00 0.00 0.00 0.00 0.00 0.00 0.00 0.00 0.00 0.00 0.00 0.00 0.00 0.00 0.00 0.00 0.00 0.00
0.00 0.00 0.00 0.00 0.00 0.00 0.00 0.00 0.00 0.00 0.00 0.00 0.00 0.00 0.00 0.00 0.00 0.00 0.00 0.00 0.00 0.00 0.00 0.00 0.00 0.00 0.00 0.00 0.00 0.00 0.00 0.00 0.00 0.00 0.00 0.00 0.00 0.00 0.00 0.00 0.00 0.00 0.00
0.00 0.00 0.00 0.00 0.00 0.00 0.00 0.00 0.00 0.00 0.00 0.00 0.00 0.00 0.00 0.00 0.00 0.00 0.00 0.00 0.00 0.00 0.00 0.00 0.00 0.00 0.00 0.00 0.00 0.00 0.00 0.00 0.00 0.00 0.00 0.00 0.00 0.00 0.00 0.00 0.00 0.00 0.00
0.00 0.00 0.00 0.00 0.00 0.00 0.00 0.00 0.00 0.00 0.00 0.00 0.00 0.00 0.00 0.00 0.00 0.00 0.00 0.00 0.00 0.00 0.00 0.00 0.00 0.00 0.00 0.00 0.00 0.00 0.00 0.00 0.00 0.00 0.00 0.00 0.00 0.00 0.00 0.00 0.00 0.00 0.00
0.00 0.00 0.00 0.00 0.00 0.00 0.00 0.00 0.00 0.00 0.00 0.00 0.00 0.00 0.00 0.00 0.00 0.00 0.00 0.00 0.00 0.00 0.00 0.00 0.00 0.00 0.00 0.00 0.00 0.00 0.00 0.00 0.00 0.00 0.00 0.00 0.00 0.00 0.00 0.00 0.00 0.00 0.00
0.00 0.00 0.00 0.00 0.00 0.00 0.00 0.00 0.00 0.00 0.00 0.00 0.00 0.00 0.00 0.00 0.00 0.00 0.00 0.00 0.00 0.00 0.00 0.00 0.00 0.00 0.00 0.00 0.00 0.00 0.00 0.00 0.00 0.00 0.00 0.00 0.00 0.00 0.00 0.00 0.00 0.00 0.00
0.00 0.00 0.00 0.00 0.00 0.00 0.00 0.00 0.00 0.00 0.00 0.00 0.00 0.00 0.00 0.00 0.00 0.00 0.00 0.00 0.00 0.00 0.00 0.00 0.00 0.00 0.00 0.00 0.00 0.00 0.00 0.00 0.00 0.00 0.00 0.00 0.00 0.00 0.00 0.00 0.00 0.00 0.00
0.00 0.00 0.00 0.00 0.00 0.00 0.00 0.00 0.00 0.00 0.00 0.00 0.00 0.00 0.00 0.00 0.00 0.00 0.00 0.00 0.00 0.00 0.00 0.00 0.00 0.00 0.00 0.00 0.00 0.00 0.00 0.00 0.00 0.00 0.00 0.00 0.00 0.00 0.00 0.00 0.00 0.00 0.00
0.00 0.00 0.00 0.00 0.00 0.00 0.00 0.00 0.00 0.00 0.00 0.00 0.00 0.00 0.00 0.00 0.00 0.00 0.00 0.00 0.00 0.00 0.00 0.00 0.00 0.00 0.00 0.00 0.00 0.00 0.00 0.00 0.00 0.00 0.00 0.00 0.00 0.00 0.00 0.00 0.00 0.00 0.00
0.00 0.00 0.00 0.00 0.00 0.00 0.00 0.00 0.00 0.00 0.00 0.00 0.00 0.00 0.00 0.00 0.00 0.00 0.00 0.00 0.00 0.00 0.00 0.00 0.00 0.00 0.00 0.00 0.00 0.00 0.00 0.00 0.00 0.00 0.00 0.00 0.00 0.00 0.00 0.00 0.00 0.00 0.00
0.00 0.00 0.00 0.00 0.00 0.00 0.00 0.00 0.00 0.00 0.00 0.00 0.00 0.00 0.00 0.00 0.00 0.00 0.00 0.00 0.00 0.00 0.00 0.00 0.00 0.00 0.00 0.00 0.00 0.00 0.00 0.00 0.00 0.00 0.00 0.00 0.00 0.00 0.00 0.00 0.00 0.00 0.00
0.00 0.00 0.00 0.00 0.00 0.00 0.00 0.00 0.00 0.00 0.00 0.00 0.00 0.00 0.00 0.00 0.00 0.00 0.00 0.00 0.00 0.00 0.00 0.00 0.00 0.00 0.00 0.00 0.00 0.00 0.00 0.00 0.00 0.00 0.00 0.00 0.00 0.00 0.00 0.00 0.00 0.00 0.00
0.00 0.00 0.00 0.00 0.00 0.00 0.00 0.00 0.00 0.00 0.00 0.00 0.00 0.00 0.00 0.00 0.00 0.00 0.00 0.00 0.00 0.00 0.00 0.00 0.00 0.00 0.00 0.00 0.00 0.00 0.00 0.00 0.00 0.00 0.00 0.00 0.00 0.00 0.00 0.00 0.00 0.00 0.00
0.00 0.00 0.00 0.00 0.00 0.00 0.00 0.00 0.00 0.00 0.00 0.00 0.00 0.00 0.00 0.00 0.00 0.00 0.00 0.00 0.00 0.00 0.00 0.00 0.00 0.00 0.00 0.00 0.00 0.00 0.00 0.00 0.00 0.00 0.00 0.00 0.00 0.00 0.00 0.01 0.01 0.01 0.01
0.00 0.00 0.00 0.00 0.00 0.00 0.00 0.00 0.00 0.00 0.00 0.00 0.00 0.00 0.00 0.00 0.00 0.00 0.00 0.00 0.00 0.00 0.00 0.00 0.00 0.00 0.00 0.00 0.00 0.00 0.00 0.00 0.00 0.00 0.00 0.00 0.00 0.00 0.00 0.01 0.01 0.01 0.02
0.00 0.00 0.00 0.00 0.00 0.00 0.00 0.00 0.00 0.00 0.00 0.00 0.00 0.00 0.00 0.00 0.00 0.00 0.00 0.00 0.00 0.00 0.00 0.00 0.00 0.00 0.00 0.00 0.00 0.00 0.00 0.00 0.00 0.00 0.00 0.00 0.00 0.00 0.01 0.02 0.02 0.02 0.03
0.00 0.00 0.00 0.00 0.00 0.00 0.00 0.00 0.00 0.00 0.00 0.00 0.00 0.00 0.00 0.00 0.00 0.00 0.00 0.00 0.00 0.00 0.00 0.00 0.00 0.00 0.00 0.00 0.00 0.00 0.00 0.00 0.00 0.00 0.00 0.00 0.00 0.00 0.01 0.02 0.05 0.08 0.09
0.00 0.00 0.00 0.00 0.00 0.00 0.00 0.00 0.00 0.00 0.00 0.00 0.00 0.00 0.00 0.00 0.00 0.00 0.00 0.00 0.00 0.00 0.00 0.00 0.00 0.00 0.00 0.00 0.00 0.00 0.00 0.00 0.00 0.00 0.00 0.00 0.00 0.01 0.02 0.03 0.04 0.04 0.06
0.00 0.00 0.00 0.00 0.00 0.00 0.00 0.00 0.00 0.00 0.00 0.00 0.00 0.00 0.00 0.00 0.00 0.00 0.00 0.00 0.00 0.00 0.00 0.00 0.00 0.00 0.00 0.00 0.00 0.00 0.00 0.00 0.00 0.00 0.00 0.00 0.00 0.01 0.03 0.07 0.05 0.02 0.01
0.00 0.00 0.00 0.00 0.00 0.00 0.00 0.00 0.00 0.00 0.00 0.00 0.00 0.00 0.00 0.00 0.00 0.00 0.00 0.00 0.00 0.00 0.00 0.00 0.00 0.00 0.00 0.00 0.00 0.00 0.00 0.00 0.00 0.01 0.01 0.00 0.01 0.01 0.03 0.09 0.08 0.03 0.01
0.00 0.00 0.00 0.00 0.00 0.00 0.00 0.00 0.00 0.00 0.00 0.00 0.00 0.00 0.00 0.00 0.00 0.00 0.00 0.00 0.00 0.00 0.00 0.00 0.00 0.00 0.00 0.00 0.00 0.00 0.00 0.00 0.00 0.01 0.02 0.01 0.01 0.03 0.04 0.07 0.07 0.03 0.01
0.00 0.00 0.00 0.00 0.00 0.00 0.00 0.00 0.00 0.00 0.00 0.00 0.00 0.00 0.00 0.00 0.00 0.00 0.00 0.00 0.00 0.00 0.00 0.00 0.00 0.00 0.00 0.00 0.00 0.00 0.00 0.01 0.01 0.01 0.01 0.01 0.01 0.03 0.06 0.08 0.10 0.07 0.07
0.00 0.00 0.00 0.00 0.00 0.00 0.00 0.00 0.00 0.00 0.00 0.00 0.00 0.00 0.00 0.00 0.00 0.00 0.00 0.00 0.00 0.00 0.00 0.00 0.00 0.00 0.00 0.00 0.00 0.00 0.00 0.01 0.01 0.02 0.02 0.02 0.03 0.03 0.04 0.07 0.10 0.11 0.13
0.00 0.00 0.00 0.00 0.00 0.00 0.00 0.00 0.00 0.00 0.00 0.00 0.00 0.00 0.00 0.00 0.00 0.00 0.00 0.00 0.00 0.00 0.00 0.01 0.01 0.00 0.00 0.00 0.00 0.00 0.00 0.00 0.01 0.03 0.04 0.05 0.05 0.05 0.05 0.04 0.06 0.09 0.11
0.00 0.00 0.00 0.00 0.00 0.00 0.00 0.00 0.00 0.00 0.00 0.00 0.00 0.00 0.00 0.00 0.00 0.00 0.00 0.00 0.00 0.00 0.01 0.01 0.01 0.02 0.01 0.01 0.01 0.01 0.02 0.01 0.01 0.03 0.06 0.07 0.07 0.09 0.09 0.06 0.04 0.04 0.06
0.00 0.00 0.00 0.00 0.00 0.00 0.00 0.00 0.00 0.00 0.00 0.00 0.00 0.00 0.00 0.00 0.00 0.00 0.00 0.00 0.00 0.01 0.01 0.01 0.02 0.02 0.02 0.02 0.02 0.03 0.03 0.03 0.04 0.07 0.09 0.07 0.06 0.07 0.07 0.06 0.04 0.03 0.02
MSLP
1014.50 1014.23 1014.01 1013.88 1013.86 1013.97 1014.24 1014.65 1015.18 1015.79 1016.45 1017.11 1017.72 1018.28 1018.75 1019.15 1019.50 1019.81 1020.10 1020.41 1020.73 1021.09 1021.48 1021.90 1022.34 1022.79 1023.23 1023.65 1024.03 1024.37 1024.62 1024.79 1024.85 1024.81 1024.66 1024.42 1024.12 1023.78 1023.43 1023.12 1022.87 1022.70 1022.60
1015.00 1014.71 1014.44 1014.22 1014.08 1014.06 1014.18 1014.46 1014.90 1015.45 1016.07 1016.71 1017.33 1017.88 1018.34 1018.70 1018.98 1019.21 1019.42 1019.63 1019.88 1020.18 1020.53 1020.94 1021.38 1021.85 1022.32 1022.76 1023.16 1023.50 1023.76 1023.93 1023.99 1023.96 1023.83 1023.61 1023.33 1023.01 1022.68 1022.38 1022.14 1021.97 1021.88
1015.55 1015.27 1014.97 1014.69 1014.45 1014.31 1014.31 1014.46 1014.79 1015.25 1015.81 1016.42 1017.01 1017.53 1017.95 1018.26 1018.47 1018.61 1018.71 1018.82 1018.97 1019.19 1019.48 1019.85 1020.27 1020.71 1021.17 1021.60 1021.99 1022.33 1022.59 1022.77 1022.87 1022.88 1022.81 1022.66 1022.45 1022.19 1021.92 1021.66 1021.44 1021.28 1021.19
1016.06 1015.81 1015.51 1015.20 1014.90 1014.67 1014.56 1014.60 1014.82 1015.19 1015.68 1016.22 1016.75 1017.22 1017.58 1017.82 1017.95 1017.98 1017.98 1017.99 1018.04 1018.16 1018.37 1018.66 1019.02 1019.42 1019.82 1020.22 1020.58 1020.90 1021.16 1021.37 1021.52 1021.60 1021.62 1021.58 1021.48 1021.32 1021.13 1020.93 1020.74 1020.59 1020.49
1016.45 1016.26 1015.99 1015.68 1015.35 1015.07 1014.88 1014.83 1014.94 1015.22 1015.62 1016.08 1016.53 1016.93 1017.22 1017.38 1017.41 1017.36 1017.26 1017.16 1017.11 1017.13 1017.25 1017.46 1017.73 1018.04 1018.38 1018.70 1019.02 1019.30 1019.57 1019.80 1020.01 1020.18 1020.31 1020.40 1020.42 1020.39 1020.30 1020.17 1020.02 1019.87 1019.75
1016.71 1016.58 1016.37 1016.08 1015.76 1015.45 1015.21 1015.09 1015.12 1015.30 1015.60 1015.97 1016.33 1016.64 1016.84 1016.92 1016.88 1016.74 1016.55 1016.37 1016.23 1016.17 1016.20 1016.31 1016.48 1016.70 1016.94 1017.18 1017.43 1017.67 1017.91 1018.16 1018.42 1018.68 1018.92 1019.13 1019.28 1019.37 1019.38 1019.32 1019.21 1019.07 1018.94
1016.85 1016.78 1016.63 1016.39 1016.09 1015.77 1015.51 1015.33 1015.29 1015.39 1015.59 1015.86 1016.13 1016.34 1016.46 1016.46 1016.35 1016.14 1015.90 1015.66 1015.46 1015.32 1015.27 1015.29 1015.37 1015.48 1015.62 1015.76 1015.92 1016.10 1016.30 1016.55 1016.84 1017.15 1017.48 1017.79 1018.05 1018.23 1018.33 1018.34 1018.27 1018.16 1018.03
1016.92 1016.90 1016.79 1016.60 1016.33 1016.03 1015.75 1015.54 1015.44 1015.46 1015.57 1015.73 1015.90 1016.03 1016.07 1016.00 1015.84 1015.59 1015.32 1015.04 1014.80 1014.62 1014.50 1014.45 1014.43 1014.45 1014.47 1014.51 1014.57 1014.66 1014.81 1015.02 1015.30 1015.64 1016.01 1016.38 1016.71 1016.97 1017.13 1017.20 1017.19 1017.11 1017.02
1016.95 1016.96 1016.90 1016.74 1016.50 1016.22 1015.93 1015.70 1015.54 1015.49 1015.51 1015.59 1015.67 1015.70 1015.68 1015.56 1015.35 1015.09 1014.80 1014.51 1014.25 1014.04 1013.89 1013.77 1013.68 1013.60 1013.52 1013.44 1013.39 1013.38 1013.44 1013.58 1013.82 1014.13 1014.50 1014.89 1015.25 1015.56 1015.78 1015.90 1015.95 1015.93 1015.89
1016.98 1017.01 1016.97 1016.83 1016.61 1016.34 1016.05 1015.80 1015.61 1015.49 1015.44 1015.43 1015.42 1015.38 1015.29 1015.13 1014.90 1014.62 1014.33 1014.04 1013.78 1013.56 1013.38 1013.21 1013.05 1012.88 1012.71 1012.52 1012.36 1012.23 1012.19 1012.24 1012.39 1012.64 1012.97 1013.33 1013.70 1014.02 1014.28 1014.46 1014.58 1014.64 1014.69
1017.04 1017.07 1017.03 1016.91 1016.70 1016.43 1016.14 1015.86 1015.64 1015.47 1015.35 1015.27 1015.18 1015.08 1014.92 1014.72 1014.46 1014.17 1013.88 1013.60 1013.34 1013.11 1012.90 1012.70 1012.48 1012.23 1011.96 1011.67 1011.40 1011.16 1011.00 1010.93 1010.99 1011.15 1011.41 1011.72 1012.06 1012.39 1012.68 1012.92 1013.11 1013.27 1013.42
1017.13 1017.15 1017.11 1016.98 1016.76 1016.49 1016.20 1015.91 1015.66 1015.45 1015.27 1015.12 1014.97 1014.79 1014.58 1014.33 1014.04 1013.73 1013.42 1013.13 1012.87 1012.62 1012.38 1012.14 1011.86 1011.55 1011.20 1010.82 1010.44 1010.10 1009.82 1009.65 1009.60 1009.67 1009.84 1010.10 1010.40 1010.73 1011.04 1011.34 1011.61 1011.86 1012.13
1017.25 1017.26 1017.20 1017.05 1016.83 1016.56 1016.26 1015.96 1015.69 1015.44 1015.22 1015.00 1014.78 1014.54 1014.26 1013.95 1013.62 1013.28 1012.94 1012.62 1012.33 1012.05 1011.78 1011.49 1011.16 1010.79 1010.36 1009.91 1009.45 1009.01 1008.65 1008.38 1008.23 1008.21 1008.31 1008.50 1008.77 1009.09 1009.42 1009.76 1010.11 1010.46 1010.83
1017.38 1017.37 1017.29 1017.13 1016.90 1016.62 1016.32 1016.02 1015.72 1015.44 1015.18 1014.91 1014.63 1014.31 1013.97 1013.59 1013.20 1012.81 1012.42 1012.06 1011.72 1011.40 1011.08 1010.73 1010.35 1009.92 1009.44 1008.93 1008.40 1007.90 1007.47 1007.13 1006.90 1006.81 1006.85 1006.99 1007.23 1007.53 1007.88 1008.26 1008.66 1009.09 1009.53
1017.51 1017.49 1017.39 1017.22 1016.97 1016.69 1016.38 1016.06 1015.76 1015.45 1015.14 1014.83 1014.48 1014.10 1013.69 1013.24 1012.78 1012.32 1011.88 1011.46 1011.06 1010.67 1010.29 1009.89 1009.46 1008.97 1008.45 1007.89 1007.33 1006.79 1006.31 1005.93 1005.66 1005.52 1005.50 1005.61 1005.82 1006.11 1006.46 1006.86 1007.29 1007.76 1008.25
1017.64 1017.60 1017.48 1017.28 1017.03 1016.73 1016.42 1016.09 1015.77 1015.43 1015.09 1014.72 1014.32 1013.88 1013.39 1012.88 1012.36 1011.83 1011.32 1010.83 1010.36 1009.92 1009.47 1009.01 1008.52 1008.00 1007.44 1006.85 1006.27 1005.71 1005.22 1004.81 1004.52 1004.35 1004.31 1004.38 1004.57 1004.83 1005.17 1005.57 1006.01 1006.49 1006.99
1017.75 1017.68 1017.54 1017.32 1017.05 1016.73 1016.41 1016.06 1015.72 1015.36 1014.97 1014.56 1014.10 1013.61 1013.07 1012.50 1011.91 1011.33 1010.75 1010.20 1009.67 1009.16 1008.65 1008.13 1007.60 1007.03 1006.45 1005.85 1005.26 1004.71 1004.22 1003.81 1003.52 1003.34 1003.27 1003.32 1003.47 1003.71 1004.02 1004.39 1004.81 1005.27 1005.76
1017.82 1017.73 1017.55 1017.30 1017.00 1016.67 1016.31 1015.95 1015.57 1015.18 1014.76 1014.30 1013.80 1013.26 1012.68 1012.06 1011.44 1010.81 1010.18 1009.58 1009.00 1008.43 1007.86 1007.29 1006.71 1006.12 1005.52 1004.92 1004.34 1003.79 1003.32 1002.93 1002.64 1002.46 1002.38 1002.40 1002.52 1002.72 1002.98 1003.31 1003.69 1004.10 1004.56
1017.85 1017.71 1017.49 1017.21 1016.87 1016.51 1016.12 1015.73 1015.31 1014.88 1014.42 1013.92 1013.39 1012.81 1012.20 1011.56 1010.91 1010.25 1009.60 1008.96 1008.33 1007.72 1007.10 1006.49 1005.88 1005.26 1004.65 1004.05 1003.48 1002.96 1002.51 1002.15 1001.87 1001.69 1001.60 1001.60 1001.67 1001.82 1002.03 1002.31 1002.63 1003.00 1003.41
1017.82 1017.63 1017.36 1017.03 1016.65 1016.25 1015.83 1015.39 1014.93 1014.46 1013.95 1013.42 1012.85 1012.26 1011.63 1010.98 1010.31 1009.65 1008.98 1008.32 1007.66 1007.01 1006.36 1005.71 1005.07 1004.44 1003.82 1003.23 1002.68 1002.19 1001.77 1001.42 1001.17 1000.99 1000.89 1000.86 1000.90 1000.99 1001.15 1001.36 1001.63 1001.95 1002.33
1017.70 1017.46 1017.14 1016.76 1016.34 1015.90 1015.43 1014.95 1014.45 1013.93 1013.38 1012.82 1012.22 1011.61 1010.97 1010.32 1009.66 1008.98 1008.31 1007.63 1006.96 1006.28 1005.60 1004.93 1004.26 1003.61 1002.99 1002.42 1001.90 1001.44 1001.05 1000.74 1000.50 1000.33 1000.22 1000.17 1000.17 1000.22 1000.33 1000.49 1000.71 1000.99 1001.33
1017.50 1017.20 1016.83 1016.42 1015.96 1015.48 1014.97 1014.44 1013.90 1013.33 1012.75 1012.15 1011.53 1010.90 1010.26 1009.61 1008.94 1008.27 1007.59 1006.90 1006.21 1005.50 1004.80 1004.10 1003.42 1002.77 1002.16 1001.60 1001.10 1000.68 1000.33 1000.05 999.84 999.68 999.58 999.51 999.48 999.50 999.56 999.68 999.86 1000.12 1000.45
1017.21 1016.86 1016.46 1016.01 1015.53 1015.01 1014.47 1013.91 1013.32 1012.72 1012.10 1011.47 1010.84 1010.19 1009.54 1008.88 1008.21 1007.53 1006.84 1006.14 1005.41 1004.69 1003.96 1003.24 1002.54 1001.89 1001.29 1000.76 1000.30 999.92 999.61 999.37 999.19 999.05 998.95 998.88 998.84 998.83 998.87 998.96 999.13 999.37 999.69
1016.84 1016.46 1016.04 1015.57 1015.07 1014.54 1013.97 1013.38 1012.77 1012.14 1011.49 1010.83 1010.17 1009.50 1008.84 1008.16 1007.48 1006.79 1006.07 1005.34 1004.60 1003.84 1003.08 1002.34 1001.64 1000.99 1000.40 999.90 999.48 999.15 998.89 998.70 998.55 998.45 998.36 998.30 998.25 998.24 998.26 998.34 998.49 998.73 999.05
1016.42 1016.02 1015.59 1015.11 1014.61 1014.07 1013.49 1012.89 1012.26 1011.60 1010.93 1010.25 1009.57 1008.88 1008.19 1007.49 1006.79 1006.07 1005.32 1004.56 1003.78 1002.99 1002.20 1001.45 1000.73 1000.09 999.52 999.05 998.67 998.39 998.18 998.03 997.93 997.86 997.81 997.76 997.72 997.71 997.74 997.82 997.98 998.21 998.54
1015.96 1015.55 1015.11 1014.64 1014.14 1013.61 1013.04 1012.43 1011.79 1011.12 1010.43 1009.73 1009.03 1008.32 1007.60 1006.88 1006.14 1005.39 1004.61 1003.80 1002.98 1002.16 1001.35 1000.57 999.85 999.21 998.67 998.23 997.89 997.65 997.49 997.39 997.34 997.30 997.28 997.26 997.25 997.26 997.30 997.39 997.56 997.80 998.13
Thickness
5702 5705 5706 5704 5698 5692 5686 5681 5675 5669 5661 5652 5646 5641 5639 5635 5631 5628 5624 5619 5613 5607 5601 5597 5591 5585 5580 5577 5572 5567 5562 5558 5550 5544 5545 5549 5549 5550 5548 5544 5542 5539 5535
5692 5695 5695 5693 5689 5686 5681 5676 5671 5666 5659 5654 5648 5641 5636 5631 5627 5622 5618 5614 5609 5604 5598 5593 5588 5582 5576 5571 5566 5559 5553 5549 5541 5534 5529 5531 5541 5546 5546 5543 5538 5534 5527
5679 5681 5683 5682 5679 5676 5673 5670 5665 5660 5655 5649 5640 5632 5626 5622 5618 5615 5612 5610 5606 5601 5596 5591 5584 5578 5572 5568 5562 5554 5547 5542 5535 5529 5521 5515 5529 5532 5537 5536 5533 5527 5521
5670 5670 5670 5670 5668 5666 5664 5661 5656 5651 5646 5640 5633 5626 5621 5619 5619 5615 5611 5606 5601 5596 5592 5586 5580 5575 5568 5564 5558 5550 5543 5535 5530 5522 5519 5517 5513 5509 5518 5523 5520 5517 5513
5661 5660 5659 5658 5657 5655 5652 5649 5646 5642 5637 5631 5626 5620 5617 5617 5613 5607 5602 5599 5595 5590 5586 5581 5575 5570 5564 5560 5553 5546 5538 5531 5527 5520 5512 5506 5501 5495 5490 5503 5506 5501 5501
5651 5650 5648 5647 5645 5643 5641 5638 5635 5631 5627 5621 5616 5611 5609 5606 5602 5598 5594 5591 5588 5584 5580 5574 5569 5565 5560 5555 5548 5540 5533 5528 5522 5516 5508 5500 5495 5495 5486 5485 5491 5488 5487
5640 5639 5638 5637 5635 5633 5630 5627 5624 5621 5617 5612 5607 5604 5601 5597 5594 5592 5588 5584 5581 5577 5573 5567 5563 5559 5554 5548 5542 5534 5529 5522 5516 5511 5505 5499 5496 5487 5481 5477 5479 5475 5474
5631 5631 5630 5628 5625 5625 5622 5618 5615 5612 5609 5604 5600 5596 5592 5589 5586 5584 5581 5577 5575 5572 5567 5561 5556 5552 5547 5541 5534 5528 5523 5516 5510 5505 5498 5492 5489 5481 5473 5467 5460 5456 5457
5626 5624 5623 5621 5619 5616 5614 5610 5607 5604 5601 5597 5593 5589 5585 5581 5578 5576 5572 5568 5566 5563 5559 5553 5548 5544 5538 5533 5527 5521 5516 5510 5504 5499 5492 5485 5482 5473 5467 5459 5450 5442 5445
5619 5618 5615 5612 5610 5608 5605 5602 5599 5596 5594 5590 5586 5583 5579 5574 5570 5566 5562 5558 5555 5551 5547 5542 5538 5533 5529 5523 5517 5514 5509 5502 5498 5491 5483 5479 5473 5465 5458 5450 5443 5436 5433
5611 5608 5605 5603 5600 5598 5595 5593 5590 5587 5584 5581 5577 5572 5569 5564 5560 5555 5551 5547 5544 5539 5535 5530 5526 5522 5517 5512 5507 5504 5499 5494 5490 5482 5476 5472 5463 5456 5449 5441 5435 5429 5422
5603 5599 5596 5593 5590 5588 5585 5582 5580 5576 5574 5570 5566 5561 5557 5552 5547 5542 5539 5534 5530 5526 5521 5517 5513 5509 5505 5500 5495 5492 5488 5483 5479 5474 5467 5463 5454 5448 5440 5433 5428 5422 5416
5594 5589 5586 5582 5579 5577 5574 5572 5569 5565 5562 5557 5552 5548 5543 5538 5533 5529 5525 5520 5515 5511 5506 5501 5497 5494 5490 5486 5482 5479 5476 5473 5469 5464 5458 5453 5443 5439 5432 5425 5420 5415 5409
5583 5580 5575 5572 5569 5566 5563 5560 5557 5553 5549 5544 5538 5533 5528 5523 5519 5514 5509 5504 5499 5494 5490 5485 5482 5478 5475 5471 5467 5464 5462 5460 5457 5453 5448 5443 5436 5431 5424 5418 5413 5406 5399
5575 5571 5566 5562 5559 5556 5552 5548 5544 5539 5534 5528 5523 5518 5513 5508 5503 5497 5492 5486 5481 5476 5472 5468 5465 5461 5457 5454 5450 5448 5447 5445 5443 5439 5435 5432 5426 5421 5415 5409 5403 5396 5389
5565 5561 5557 5553 5549 5544 5539 5534 5529 5524 5518 5512 5506 5502 5497 5491 5485 5479 5474 5468 5463 5458 5453 5449 5446 5444 5442 5441 5441 5439 5437 5434 5430 5427 5423 5418 5415 5413 5410 5407 5400 5390 5381
5554 5550 5545 5540 5535 5529 5523 5517 5513 5507 5501 5495 5490 5484 5479 5472 5467 5461 5456 5450 5445 5441 5436 5432 5429 5428 5426 5426 5428 5427 5427 5425 5421 5416 5412 5408 5405 5402 5398 5395 5394 5389 5383
5542 5536 5530 5525 5519 5514 5508 5502 5497 5490 5484 5478 5472 5466 5459 5454 5448 5442 5437 5432 5428 5423 5420 5417 5415 5413 5413 5413 5415 5415 5415 5413 5410 5406 5402 5398 5395 5391 5386 5382 5379 5375 5370
5528 5521 5515 5509 5503 5497 5492 5486 5480 5474 5467 5461 5455 5448 5440 5435 5430 5425 5420 5416 5412 5409 5406 5403 5401 5400 5401 5401 5402 5403 5402 5400 5398 5395 5392 5388 5385 5382 5379 5374 5368 5363 5359
5515 5508 5501 5494 5488 5483 5476 5469 5463 5457 5451 5446 5439 5431 5423 5416 5412 5408 5405 5401 5396 5395 5393 5392 5390 5388 5388 5389 5391 5391 5390 5389 5388 5385 5382 5381 5378 5373 5370 5365 5360 5354 5348
5500 5493 5485 5477 5471 5465 5458 5452 5446 5440 5435 5430 5423 5415 5407 5400 5396 5393 5390 5386 5384 5382 5382 5381 5380 5378 5378 5380 5381 5381 5380 5379 5378 5377 5374 5370 5369 5368 5364 5359 5352 5347 5338
5485 5479 5471 5463 5456 5448 5440 5436 5431 5427 5421 5415 5408 5402 5395 5387 5383 5379 5377 5374 5372 5371 5372 5372 5373 5372 5370 5370 5371 5372 5374 5374 5371 5369 5366 5363 5362 5359 5357 5352 5347 5339 5332
5469 5463 5455 5449 5442 5432 5423 5417 5416 5411 5406 5401 5394 5388 5383 5377 5371 5367 5367 5366 5363 5363 5364 5364 5365 5367 5365 5363 5365 5366 5366 5366 5364 5361 5360 5358 5355 5352 5348 5344 5339 5332 5324
5454 5447 5440 5435 5430 5422 5411 5402 5398 5395 5391 5386 5382 5377 5372 5369 5365 5360 5357 5357 5356 5356 5357 5358 5360 5361 5361 5359 5358 5356 5356 5356 5354 5351 5350 5350 5347 5342 5338 5333 5328 5322 5315
5439 5432 5424 5419 5416 5410 5402 5393 5386 5381 5377 5374 5370 5367 5362 5359 5358 5355 5352 5352 5352 5349 5352 5354 5354 5355 5357 5357 5357 5357 5354 5349 5346 5344 5339 5335 5332 5330 5327 5323 5317 5311 5305
5425 5418 5411 5405 5402 5396 5391 5384 5377 5370 5365 5364 5362 5358 5355 5352 5350 5349 5351 5351 5349 5351 5350 5351 5351 5351 5352 5354 5354 5353 5352 5350 5347 5342 5336 5329 5324 5321 5319 5315 5309 5303 5297